This demonstration page uses our WeatherBlox Daily Observations layout. Learn more.

Left ArrowRight Arrow

38.88101, -77.10428

Hourly Observations for September 18, 2021

Temp ( °F °C ) Dew Point ( °F °C ) Humidity (%) Winds ( mph kmh ) Pressure ( in mb ) Visibility ( mi km ) Precip ( " mm )
12:52 am 00:52 Partly Cloudy 72 22.2 69 20.6 91 91 NNE 5 7 30.12 1020 10 16 N/A
1:52 am 01:52 Mostly Cloudy 72 22.2 69 20.6 91 91 ENE 5 7 30.10 1019 10 16 N/A
2:52 am 02:52 Partly Cloudy 71 21.7 68 20 90 90 N 3 6 30.10 1019 10 16 N/A
3:31 am 03:31 Mostly Cloudy 71 21.7 68 20 90 90 NE 3 6 30.11 1020 10 16 N/A
3:52 am 03:52 Mostly Cloudy 71 21.7 69 20.6 94 94 ESE 3 6 30.10 1019 9 14 N/A
3:59 am 03:59 Cloudy 71 21.7 69 20.6 94 94 N N/A 30.11 1020 9 14 N/A
4:49 am 04:49 Mostly Cloudy 72 22 68 20 88 88 N N/A 30.11 1020 9 14 N/A
4:52 am 04:52 Mostly Cloudy 71 21.7 68 20 90 90 N N/A 30.11 1020 9 14 N/A
5:27 am 05:27 Cloudy 71 21.7 68 20 90 90 NNW 3 6 30.11 1020 9 14 N/A
5:52 am 05:52 Cloudy 71 21.7 68 20 90 90 N 3 6 30.11 1020 9 14 N/A
6:02 am 06:02 Cloudy 71 21.7 69 20.6 94 94 N N/A 30.12 1020 9 14 N/A
6:17 am 06:17 Cloudy 71 21.7 69 20.6 94 94 E 3 6 30.12 1020 8 13 N/A
6:24 am 06:24 Cloudy 71 21.7 69 20.6 94 94 NE 3 6 30.12 1020 8 13 N/A
6:52 am 06:52 Cloudy with Mist and Fog 71 21.7 68 20 90 90 E 3 6 30.13 1020 6 10 N/A
7:39 am 07:39 Cloudy with Mist and Fog 71 21.7 68 20 90 90 NE 5 7 30.13 1020 6 10 N/A
7:52 am 07:52 Cloudy with Mist and Fog 71 21.7 68 20 90 90 ENE 5 7 30.13 1020 6 10 N/A
8:52 am 08:52 Cloudy with Mist and Fog 71 21.7 68 20 90 90 N N/A 30.13 1020 6 10 N/A
9:02 am 09:02 Cloudy with Mist and Fog 71 21.7 68 20 90 90 N N/A 30.13 1020 6 10 N/A
9:14 am 09:14 Cloudy with Mist and Fog 72 22.2 69 20.6 91 91 S 3 6 30.13 1020 6 10 N/A
9:32 am 09:32 Cloudy 72 22.2 69 20.6 91 91 N N/A 30.13 1020 7 11 N/A
9:43 am 09:43 Mostly Cloudy 72 22.2 69 20.6 91 91 N N/A 30.13 1020 7 11 N/A
9:52 am 09:52 Partly Cloudy 72 22.2 69 20.6 91 91 N N/A 30.12 1020 7 11 N/A
10:27 am 10:27 Mostly Cloudy 74 23.3 70 21.1 88 88 ENE 5 7 30.14 1021 8 13 N/A
10:52 am 10:52 Mostly Cloudy 78 25.6 69 20.6 74 74 NNE 6 9 30.13 1020 10 16 N/A
11:52 am 11:52 Mostly Cloudy 81 27.2 69 20.6 67 67 E 5 7 30.13 1020 10 16 N/A
12:40 pm 12:40 Mostly Cloudy 78 25.6 70 21.1 76 76 S 6 9 30.11 1020 10 16 N/A
12:52 pm 12:52 Mostly Cloudy 79 26.1 70 21.1 74 74 S 7 11 30.11 1020 10 16 N/A
1:52 pm 13:52 Partly Cloudy 82 27.8 71 21.7 69 69 SSE 6 9 30.09 1019 10 16 N/A
2:52 pm 14:52 Partly Cloudy 84 28.9 71 21.7 65 65 S 7 11 30.06 1018 10 16 N/A
3:52 pm 15:52 Partly Cloudy 85 29.4 70 21.1 61 61 S 7 11 30.04 1017 10 16 N/A
4:52 pm 16:52 Partly Cloudy 84 28.9 71 21.7 65 65 S 7 11 30.03 1017 10 16 N/A
5:52 pm 17:52 Mostly Sunny 83 28.3 72 22.2 70 70 S 8 13 30.02 1017 10 16 N/A
6:52 pm 18:52 Partly Cloudy 79 26.1 72 22.2 79 79 S 7 11 30.03 1017 10 16 N/A
7:52 pm 19:52 Mostly Clear 79 26.1 71 21.7 77 77 N N/A 30.04 1017 10 16 N/A
8:52 pm 20:52 Mostly Clear 77 25 71 21.7 82 82 S 3 6 30.06 1018 10 16 N/A
9:52 pm 21:52 Mostly Clear 74 23.3 70 21.1 88 88 SSW 5 7 30.07 1018 10 16 N/A
10:52 pm 22:52 Mostly Clear 77 25 69 20.6 77 77 N N/A 30.08 1019 10 16 N/A
11:52 pm 23:52 Mostly Clear 76 24.4 71 21.7 85 85 N N/A 30.09 1019 10 16 N/A

Powered by AerisWeather